1506463201.23,61471,15.25,74744.8,0.99,-18.93,-21.67,0,*49
1506463202.46,61472,15.25,74746.5,0.97,-19.07,-21.83,0,*42
1506463203.68,61473,15.25,74742.5,0.99,-19.07,-21.73,0,*42
1506463204.94,61474,15.25,74744.3,0.99,-19.07,-21.83,0,*4A
1506463206.17,61475,15.25,74744.0,0.97,-19.07,-21.67,0,*4F
1506463207.4,61476,15.25,74742.8,0.97,-18.99,-21.57,0,*49
1506463208.62,61477,15.25,74746.8,0.97,-19.07,-21.57,0,*4E
1506463209.85,61478,15.25,74750.0,0.97,-18.99,-21.83,0,*4E
1506463211.12,61479,15.25,74744.3,0.99,-18.89,-21.57,0,*49
1506463212.35,61480,15.25,74740.3,0.99,-18.79,-21.43,0,*45
1506463213.55,61481,15.25,74746.3,0.97,-18.79,-21.43,0,*4A
1506463214.83,61482,15.25,74746.8,0.99,-18.89,-21.53,0,*49
1506463216.03,61483,15.25,74744.5,1.01,-18.83,-21.47,0,*77
1506463217.31,61484,15.25,74744.3,0.99,-18.93,-21.53,0,*44
1506463218.57,61485,15.25,74744.3,0.99,-18.99,-21.57,0,*4B
1506463219.82,61486,15.25,74746.0,0.99,-18.99,-21.67,0,*4B
1506463221.07,61487,15.25,74744.0,0.99,-18.99,-21.57,0,*49
1506463222.33,61488,15.25,74746.8,0.99,-18.99,-21.53,0,*42
1506463223.59,61489,15.25,74746.8,0.99,-18.99,-21.53,0,*43
1506463224.81,61490,15.25,74744.5,0.97,-19.07,-21.57,0,*47
1506463226.04,61491,15.25,74742.8,0.97,-18.99,-21.53,0,*44
1506463227.32,61492,15.25,74746.0,0.99,-18.93,-21.57,0,*47
1506463228.57,61493,15.25,74744.5,0.99,-18.99,-21.57,0,*4C
1506463229.82,61494,15.25,74742.3,0.99,-18.93,-21.43,0,*44
1506463231.04,61495,15.25,74748.0,0.97,-18.89,-21.43,0,*40
1506463232.32,61496,15.25,74744.8,0.99,-18.89,-21.53,0,*4C
1506463233.61,61497,15.25,74746.0,0.99,-18.93,-21.27,0,*45
1506463234.85,61498,15.25,74748.0,0.99,-18.89,-21.43,0,*43
1506463236.1,61499,15.25,74748.5,0.99,-18.89,-21.39,0,*4F
1506463237.36,61500,15.25,74744.8,0.99,-18.89,-21.39,0,*4E
1506463238.64,61501,15.25,74744.0,0.99,-18.93,-21.53,0,*48
1506463239.89,61502,15.25,74748.8,0.99,-18.99,-21.53,0,*41
1506463241.14,61503,15.25,74744.0,0.99,-18.89,-21.39,0,*4D
1506463242.43,61504,15.25,74746.0,0.99,-18.59,-21.23,0,*4C
1506463243.66,61505,15.25,74748.0,0.99,-18.65,-21.13,0,*41
1506463244.92,61506,15.25,74740.5,0.99,-18.79,-21.23,0,*4C
1506463246.2,61507,15.25,74742.8,0.99,-18.89,-21.27,0,*46
1506463247.49,61508,15.25,74742.0,0.99,-18.93,-21.27,0,*42
1506463248.72,61509,15.25,74740.0,1.01,-18.83,-21.33,0,*77
1506463249.98,61510,15.25,74742.5,0.99,-18.79,-21.27,0,*4F
1506463251.21,61511,15.25,74746.5,0.97,-18.79,-21.27,0,*40
1506463252.45,61512,15.25,74748.3,1.01,-18.83,-21.23,0,*7C
1506463253.74,61513,15.25,74746.3,0.99,-18.93,-21.27,0,*48
1506463254.97,61514,15.25,74744.8,0.99,-18.79,-21.39,0,*44
1506463256.2,61515,15.25,74740.0,0.99,-18.65,-21.13,0,*40
1506463257.46,61516,15.31,74746.0,0.99,-18.65,-21.23,0,*40
1506463258.72,61517,15.25,74744.5,0.99,-18.79,-21.23,0,*4C
1506463259.95,61518,15.25,74746.3,1.01,-18.83,-21.33,0,*77
1506463261.19,61519,15.25,74748.3,1.01,-18.83,-21.23,0,*77
1506463262.42,61520,15.25,74748.3,1.01,-18.83,-21.33,0,*7C
1506463263.68,61521,15.25,74746.3,0.99,-18.73,-21.27,0,*47
1506463264.94,61522,15.25,74746.3,0.99,-18.79,-21.23,0,*4A
1506463266.17,61523,15.25,74746.8,0.99,-18.65,-21.09,0,*4E
1506463267.42,61524,15.25,74744.5,0.99,-18.59,-21.13,0,*4D
1506463268.64,61525,15.25,74740.5,0.99,-18.49,-21.09,0,*46
1506463269.88,61526,15.25,74744.0,1.01,-18.79,-21.23,0,*7E
1506463271.09,61527,15.25,74744.3,1.01,-18.83,-21.17,0,*7D
1506463272.37,61528,15.25,74744.3,0.99,-18.89,-21.23,0,*4F
1506463273.64,61529,15.25,74744.5,0.99,-18.79,-21.23,0,*41
1506463274.9,61530,15.25,74746.3,0.99,-18.79,-21.23,0,*49
1506463276.13,61531,15.25,74744.8,0.99,-18.73,-21.13,0,*41
1506463277.41,61532,15.25,74744.8,0.99,-18.89,-21.23,0,*44
1506463278.64,61533,15.25,74750.0,1.01,-18.73,-21.03,0,*72
1506463279.87,61534,15.25,74746.5,1.01,-18.59,-21.09,0,*77
1506463281.09,61535,15.25,74746.5,0.99,-18.79,-21.13,0,*4F
1506463282.36,61536,15.25,74744.3,0.99,-18.73,-21.23,0,*45
1506463283.56,61537,15.25,74740.8,1.01,-18.73,-21.17,0,*73
1506463284.82,61538,15.25,74744.5,0.99,-18.73,-20.99,0,*4B
1506463286.1,61539,15.25,74748.0,0.99,-18.59,-20.99,0,*42
1506463287.33,61540,15.25,74744.0,0.99,-18.65,-20.93,0,*49
1506463288.61,61541,15.31,74754.0,0.99,-18.59,-20.99,0,*4D
1506463289.87,61542,15.25,74746.5,0.99,-18.65,-20.99,0,*41
1506463291.09,61543,15.25,74746.8,0.99,-18.65,-21.09,0,*48
1506463292.32,61544,15.25,74746.5,0.99,-18.65,-21.09,0,*4F
1506463293.55,61545,15.25,74744.8,0.99,-18.65,-21.09,0,*4E
1506463294.83,61546,15.25,74746.8,0.99,-18.59,-20.99,0,*4A
1506463296.11,61547,15.25,74744.5,0.99,-18.59,-20.99,0,*4B
1506463297.36,61548,15.25,74744.3,0.99,-18.73,-20.99,0,*4C
1506463298.62,61549,15.25,74746.5,0.99,-18.65,-20.99,0,*4A
1506463299.84,61550,15.25,74746.5,0.99,-18.79,-21.09,0,*47
1506463301.08,61551,15.25,74746.5,0.99,-18.79,-21.13,0,*4D
1506463302.27,61552,15.25,74740.8,1.01,-18.73,-21.09,0,*7F
1506463303.53,61553,15.25,74744.3,0.99,-18.79,-20.99,0,*4C
1506463304.76,61554,15.25,74746.0,0.99,-18.73,-21.09,0,*49
1506463305.98,61555,15.25,74746.0,0.99,-18.73,-21.09,0,*48
1506463307.26,61556,15.25,74742.5,0.99,-18.59,-20.99,0,*4B
1506463308.54,61557,15.31,74746.0,0.99,-18.59,-20.99,0,*4A
1506463309.77,61558,15.25,74742.5,0.99,-18.79,-21.09,0,*4F
1506463310.99,61559,15.31,74744.5,0.99,-18.73,-21.09,0,*44
1506463312.24,61560,15.25,74742.3,0.99,-18.59,-21.09,0,*46
1506463313.5,61561,15.25,74744.3,0.99,-18.65,-20.99,0,*40
1506463314.72,61562,15.25,74744.5,0.99,-18.73,-21.09,0,*4C
1506463315.96,61563,15.31,74746.3,0.99,-18.49,-20.89,0,*4D
1506463317.2,61564,15.31,74746.8,1.01,-18.55,-20.89,0,*77
1506463318.43,61565,15.25,74744.0,0.99,-18.65,-20.93,0,*4E
1506463319.67,61566,15.25,74742.5,0.99,-18.65,-20.93,0,*4D
1506463320.92,61567,15.31,74746.8,0.99,-18.59,-20.93,0,*43
1506463322.17,61568,15.25,74742.3,0.99,-18.45,-20.79,0,*45
1506463323.41,61569,15.25,74742.3,0.99,-18.45,-20.89,0,*4B
1506463324.67,61570,15.25,74744.3,0.99,-18.49,-20.79,0,*40
1506463325.92,61571,15.25,74744.0,0.99,-18.59,-20.93,0,*44
1506463327.18,61572,15.31,74746.8,0.99,-18.59,-20.93,0,*47
1506463328.43,61573,15.25,74740.0,0.99,-18.59,-20.93,0,*46
1506463329.7,61574,15.25,74742.0,0.99,-18.59,-20.89,0,*4A
1506463330.93,61575,15.25,74742.5,1.01,-18.45,-20.83,0,*7C
1506463332.16,61576,15.25,74744.5,1.01,-18.59,-20.89,0,*78
1506463333.42,61577,15.25,74746.8,1.01,-18.59,-20.83,0,*73
1506463334.66,61578,15.25,74746.8,1.01,-18.55,-20.89,0,*7A
1506463335.91,61579,15.25,74744.8,0.99,-18.59,-20.93,0,*4C
1506463337.12,61580,15.31,74744.5,0.97,-18.65,-20.93,0,*4B
1506463338.36,61581,15.25,74744.3,0.99,-18.45,-20.89,0,*4D
1506463339.61,61582,15.25,74744.5,0.99,-18.49,-20.79,0,*4D
1506463340.86,61583,15.25,74744.0,0.99,-18.59,-20.93,0,*49
1506463342.13,61584,15.25,74744.3,0.99,-18.59,-20.89,0,*45
1506463343.36,61585,15.25,74738.0,0.99,-18.45,-20.73,0,*4C
1506463344.59,61586,15.25,74742.0,0.99,-18.45,-20.63,0,*4E
1506463345.85,61587,15.25,74742.5,0.99,-18.49,-20.79,0,*48
1506463347.08,61588,15.25,74744.5,0.99,-18.45,-20.73,0,*41
1506463348.34,61589,15.25,74744.0,0.99,-18.31,-20.63,0,*42
1506463349.6,61590,15.25,74744.5,0.99,-18.35,-20.63,0,*4E
1506463350.84,61591,15.25,74740.5,0.99,-18.45,-20.73,0,*49
1506463352.09,61592,15.25,74746.0,0.99,-18.45,-20.79,0,*40
1506463353.32,61593,15.25,74746.3,0.99,-18.49,-20.73,0,*47
1506463354.55,61594,15.25,74742.5,0.99,-18.49,-20.73,0,*40
1506463355.81,61595,15.31,74744.8,0.99,-18.49,-20.79,0,*4B
1506463357.05,61596,15.25,74746.3,0.97,-18.59,-20.79,0,*47
1506463358.31,61597,15.25,74746.8,0.99,-18.49,-20.79,0,*49
1506463359.54,61598,15.25,74746.3,0.99,-18.49,-20.73,0,*4C
1506463360.77,61599,15.25,74746.8,0.99,-18.49,-20.73,0,*4D
1506463362.03,61600,15.25,74746.0,0.99,-18.35,-20.63,0,*44
1506463363.27,61601,15.31,74748.0,0.97,-18.31,-20.63,0,*4F
1506463364.5,61602,15.25,74746.3,0.99,-18.45,-20.73,0,*40
1506463365.74,61603,15.25,74746.5,0.97,-18.35,-20.63,0,*49
1506463366.99,61604,15.25,74746.3,0.99,-18.49,-20.79,0,*40
1506463368.24,61605,15.25,74750.3,0.99,-18.49,-20.79,0,*41
1506463369.48,61606,15.25,74748.3,0.99,-18.49,-20.89,0,*4D
1506463370.71,61607,15.25,74750.0,0.99,-18.45,-20.73,0,*45
1506463371.92,61608,15.25,74750.3,0.97,-18.45,-20.73,0,*44
1506463373.18,61609,15.25,74746.3,0.99,-18.31,-20.63,0,*49
1506463374.44,61610,15.25,74750.3,0.99,-18.35,-20.63,0,*45
1506463375.7,61611,15.31,74750.5,0.99,-18.35,-20.63,0,*44
1506463376.94,61612,15.25,74746.8,0.99,-18.45,-20.63,0,*40
1506463378.19,61613,15.25,74748.8,0.99,-18.45,-20.79,0,*4A
1506463379.42,61614,15.25,74748.0,0.97,-18.45,-20.79,0,*43
1506463380.65,61615,15.25,74746.8,0.99,-18.45,-20.73,0,*46
1506463381.88,61616,15.25,74750.0,0.99,-18.45,-20.73,0,*45
1506463383.14,61617,15.25,74744.8,0.99,-18.35,-20.63,0,*42
1506463384.38,61618,15.25,74748.0,0.99,-18.45,-20.73,0,*4B
1506463385.6,61619,15.31,74748.0,0.97,-18.49,-20.79,0,*42
1506463386.85,61620,15.25,74748.3,0.99,-18.49,-20.79,0,*46
1506463388.11,61621,15.25,74744.5,0.99,-18.49,-20.79,0,*47
1506463389.37,61622,15.25,74744.8,0.99,-18.35,-20.63,0,*44
1506463390.63,61623,15.25,74744.3,0.99,-18.31,-20.63,0,*41
1506463391.9,61624,15.25,74744.3,0.99,-18.31,-20.59,0,*4F
1506463393.13,61625,15.25,74746.0,0.99,-18.45,-20.73,0,*45
1506463394.39,61626,15.25,74746.5,0.99,-18.21,-20.49,0,*4D
1506463395.6,61627,15.25,74746.8,1.01,-18.25,-20.43,0,*72
1506463396.86,61628,15.31,74748.8,0.99,-18.31,-20.63,0,*4A
1506463398.1,61629,15.25,74748.5,0.99,-18.21,-20.59,0,*43
1506463399.33,61630,15.25,74748.0,1.01,-18.17,-20.53,0,*74
1506463400.59,61631,15.25,74750.3,0.99,-18.35,-20.63,0,*46
1506463401.86,61632,15.25,74746.5,0.99,-18.35,-20.63,0,*45
1506463403.09,61633,15.31,74748.3,0.97,-18.31,-20.63,0,*4E
1506463404.32,61634,15.25,74748.3,0.99,-18.21,-20.63,0,*46
1506463405.57,61635,15.25,74746.3,1.01,-18.31,-20.59,0,*7F
1506463406.77,61636,15.25,74748.8,1.01,-18.25,-20.69,0,*7A
1506463408.03,61637,15.25,74746.5,0.99,-18.35,-20.73,0,*41
1506463409.29,61638,15.25,74746.5,0.99,-18.31,-20.59,0,*42
1506463410.53,61639,15.31,74750.3,0.99,-18.21,-20.59,0,*42
1506463411.79,61640,15.31,74746.8,0.99,-18.35,-20.63,0,*40
1506463413.05,61641,15.25,74744.8,0.99,-18.31,-20.63,0,*45
1506463414.33,61642,15.25,74744.8,0.99,-18.35,-20.79,0,*49
1506463415.59,61643,15.25,74748.5,0.99,-18.35,-20.73,0,*42
1506463416.86,61644,15.25,74748.5,0.99,-18.31,-20.59,0,*49
1506463418.09,61645,15.25,74744.5,1.01,-18.11,-20.53,0,*70
1506463419.3,61646,15.25,74746.3,1.01,-18.17,-20.43,0,*74
1506463420.53,61647,15.25,74748.3,0.99,-18.17,-20.59,0,*4E
1506463421.77,61648,15.25,74748.3,0.99,-18.17,-20.43,0,*4A
1506463423.03,61649,15.25,74748.3,0.99,-18.17,-20.49,0,*41
1506463424.26,61650,15.25,74746.8,1.01,-18.01,-20.29,0,*78
1506463425.54,61651,15.25,74746.5,0.99,-17.97,-20.35,0,*44
1506463426.78,61652,15.25,74746.0,1.01,-18.01,-20.43,0,*76
1506463427.99,61653,15.25,74748.3,1.01,-18.11,-20.43,0,*76
1506463429.19,61654,15.31,74750.0,1.01,-18.17,-20.43,0,*77
1506463430.43,61655,15.25,74744.5,1.01,-18.11,-20.53,0,*71
1506463431.64,61656,15.25,74748.8,1.01,-18.11,-20.39,0,*7E
1506463432.87,61657,15.25,74746.5,0.99,-18.21,-20.63,0,*43
1506463434.11,61658,15.25,74746.0,0.99,-18.21,-20.63,0,*4C
1506463435.39,61659,15.25,74744.5,0.99,-18.31,-20.53,0,*4F
1506463436.61,61660,15.31,74748.5,1.01,-18.11,-20.39,0,*7B
1506463437.81,61661,15.25,74744.3,1.01,-18.11,-20.59,0,*7C
1506463439.05,61662,15.25,74746.0,1.01,-18.11,-20.53,0,*75
1506463440.28,61663,15.25,74746.3,0.99,-18.21,-20.63,0,*44
1506463441.54,61664,15.31,74746.8,0.99,-18.31,-20.73,0,*43
1506463442.78,61665,15.25,74746.5,0.99,-18.21,-20.59,0,*4B
1506463444.01,61666,15.31,74748.3,0.99,-18.21,-20.63,0,*41
1506463445.25,61667,15.25,74748.5,0.99,-18.17,-20.59,0,*4C
1506463446.51,61668,15.25,74748.3,0.99,-18.01,-20.43,0,*4F
1506463447.77,61669,15.25,74750.8,0.99,-18.01,-20.43,0,*4E
1506463449.03,61670,15.31,74748.8,0.99,-17.83,-20.19,0,*4C
1506463450.23,61671,15.25,74750.8,1.01,-17.83,-20.29,0,*7E
1506463451.47,61672,15.31,74752.5,1.01,-18.01,-20.43,0,*74
1506463452.7,61673,15.25,74748.3,1.01,-18.01,-20.43,0,*75
1506463453.94,61674,15.31,74750.5,1.01,-18.01,-20.43,0,*72
1506463455.18,61675,15.31,74752.5,1.01,-17.97,-20.39,0,*7E
1506463456.41,61676,15.25,74748.8,1.01,-17.93,-20.25,0,*74
1506463457.65,61677,15.25,74748.8,1.01,-17.97,-20.29,0,*7D
1506463458.88,61678,15.25,74750.0,1.01,-17.97,-20.29,0,*72
1506463460.12,61679,15.31,74750.8,1.01,-18.01,-20.39,0,*72
1506463461.35,61680,15.25,74748.0,1.01,-18.01,-20.43,0,*79
1506463462.59,61681,15.31,74754.3,1.01,-18.01,-20.43,0,*78
1506463463.83,61682,15.25,74750.8,1.01,-18.01,-20.43,0,*7B
1506463465.06,61683,15.31,74754.8,0.99,-18.07,-20.43,0,*4C
1506463466.32,61684,15.31,74750.5,1.03,-18.01,-20.39,0,*72
1506463467.56,61685,15.31,74754.8,1.01,-18.01,-20.43,0,*7C
1506463468.8,61686,15.25,74748.5,1.01,-18.01,-20.39,0,*72
1506463470.03,61687,15.25,74750.0,1.01,-18.01,-20.43,0,*7E
1506463471.31,61688,15.25,74748.0,0.99,-18.01,-20.35,0,*40
1506463472.57,61689,15.25,74746.3,0.99,-18.01,-20.43,0,*40
1506463473.81,61690,15.25,74750.5,1.01,-17.97,-20.43,0,*78
1506463475.05,61691,15.31,74750.5,1.01,-18.01,-20.43,0,*79
1506463476.29,61692,15.25,74750.5,1.01,-17.97,-20.39,0,*77
1506463477.52,61693,15.25,74748.5,1.01,-17.93,-20.43,0,*7F
1506463478.76,61694,15.25,74746.8,1.01,-17.93,-20.39,0,*75
1506463480.0,61695,15.31,74750.5,1.01,-18.01,-20.43,0,*7D
1506463481.23,61696,15.25,74748.5,0.99,-18.07,-20.63,0,*4A
1506463482.49,61697,15.25,74748.3,1.01,-17.97,-20.53,0,*7E
1506463483.73,61698,15.31,74754.0,1.01,-17.97,-20.39,0,*7D
1506463484.97,61699,15.25,74748.8,1.01,-17.97,-20.43,0,*71
1506463486.21,61700,15.25,74750.5,1.01,-17.97,-20.43,0,*70
1506463487.45,61701,15.31,74754.0,1.01,-18.01,-20.43,0,*71
1506463488.71,61702,15.25,74750.8,0.99,-18.07,-20.49,0,*4E
1506463489.98,61703,15.25,74748.5,1.03,-17.97,-20.39,0,*7C
1506463491.21,61704,15.31,74750.8,1.01,-17.93,-20.39,0,*7D
1506463492.45,61705,15.25,74750.5,1.01,-17.93,-20.43,0,*71
1506463493.68,61706,15.25,74748.8,0.99,-17.87,-20.43,0,*47
1506463494.94,61707,15.31,74752.0,0.99,-17.83,-20.35,0,*43
1506463496.17,61708,15.31,74752.8,0.99,-17.83,-20.29,0,*41
1506463497.43,61709,15.25,74748.5,0.99,-17.83,-20.35,0,*4D
1506463498.71,61710,15.31,74752.8,0.99,-17.97,-20.35,0,*40
1506463499.96,61711,15.31,74750.8,0.99,-17.83,-20.35,0,*44
1506463501.22,61712,15.31,74748.5,0.99,-17.69,-20.19,0,*4D
1506463502.46,61713,15.25,74748.5,1.01,-17.63,-20.15,0,*7A
1506463503.71,61714,15.25,74746.5,1.01,-17.55,-20.15,0,*78
1506463504.95,61715,15.31,74748.8,1.03,-17.69,-20.25,0,*77
1506463506.15,61716,15.25,74750.0,1.01,-17.69,-20.25,0,*76
1506463507.38,61717,15.31,74748.3,1.01,-17.79,-20.25,0,*76
1506463508.61,61718,15.25,74744.3,1.03,-17.69,-20.29,0,*76
1506463509.86,61719,15.31,74748.5,1.03,-17.79,-20.29,0,*76
1506463511.09,61720,15.25,74746.5,1.01,-17.79,-20.39,0,*7F
1506463512.31,61721,15.31,74746.8,1.01,-17.83,-20.39,0,*7B
1506463513.56,61722,15.31,74746.5,1.03,-17.55,-20.25,0,*7C
1506463514.79,61723,15.25,74746.3,1.03,-17.83,-20.29,0,*7A
1506463516.02,61724,15.31,74748.5,1.01,-17.79,-20.29,0,*7A
1506463517.25,61725,15.25,74750.8,1.01,-17.79,-20.39,0,*7A
1506463518.48,61726,15.25,74748.0,1.01,-17.63,-20.29,0,*73
1506463519.73,61727,15.25,74746.5,1.03,-17.63,-20.25,0,*7C
1506463520.96,61728,15.25,74750.0,1.01,-17.79,-20.39,0,*77
1506463522.2,61729,15.25,74748.3,1.03,-17.83,-20.39,0,*71
1506463523.43,61730,15.31,74754.0,1.01,-17.79,-20.29,0,*7F
1506463524.63,61731,15.25,74752.3,1.01,-17.69,-20.29,0,*7F
1506463525.86,61732,15.25,74750.3,1.01,-17.63,-20.25,0,*7A
1506463527.11,61733,15.25,74750.0,1.03,-17.63,-20.29,0,*75
1506463528.34,61734,15.25,74746.5,1.01,-17.63,-20.25,0,*7C
1506463529.57,61735,15.25,74742.8,1.01,-17.63,-20.29,0,*71
1506463530.77,61736,15.31,74744.8,1.01,-17.69,-20.29,0,*78
1506463532.0,61737,15.31,74746.0,1.01,-17.63,-20.25,0,*7F
1506463533.25,61738,15.31,74750.0,1.01,-17.55,-20.15,0,*76
1506463534.48,61739,15.25,74746.5,1.01,-17.63,-20.25,0,*71
1506463535.71,61740,15.25,74740.0,1.01,-17.55,-20.25,0,*7A
1506463536.95,61741,15.25,74744.8,1.01,-17.41,-20.09,0,*70
1506463538.17,61742,15.25,74744.3,1.01,-17.49,-20.15,0,*76
1506463539.42,61743,15.31,74748.8,1.03,-17.63,-20.29,0,*72
1506463540.67,61744,15.31,74750.0,1.03,-17.55,-20.29,0,*70
1506463541.9,61745,15.31,74748.8,1.01,-17.63,-20.25,0,*7A
1506463543.11,61746,15.31,74744.0,1.01,-17.49,-20.25,0,*71
1506463544.36,61747,15.25,74748.0,1.03,-17.63,-20.29,0,*76
1506463545.62,61748,15.31,74748.3,1.03,-17.55,-20.29,0,*7C
1506463546.84,61749,15.25,74748.3,1.01,-17.63,-20.25,0,*76
1506463548.05,61750,15.25,74746.8,1.01,-17.49,-20.29,0,*7A
1506463549.3,61751,15.25,74746.8,1.03,-17.63,-20.29,0,*71
1506463550.54,61752,15.31,74748.8,1.01,-17.41,-20.29,0,*70
1506463551.79,61753,15.31,74748.5,1.01,-17.25,-19.85,0,*7F
1506463553.0,61754,15.25,74748.0,1.01,-17.35,-19.99,0,*74
1506463554.23,61755,15.25,74746.0,1.05,-17.21,-19.95,0,*78
1506463555.48,61756,15.25,74746.5,1.03,-17.35,-20.15,0,*7A
1506463556.69,61757,15.31,74748.0,1.05,-17.35,-20.09,0,*70
1506463557.93,61758,15.31,74746.5,1.05,-17.35,-20.19,0,*7E
1506463559.13,61759,15.31,74748.5,1.05,-17.31,-20.09,0,*7A
1506463560.38,61760,15.25,74746.0,1.03,-17.35,-20.15,0,*7F
1506463561.59,61761,15.31,74750.5,1.05,-17.31,-20.05,0,*7D
1506463562.8,61762,15.31,74750.5,1.05,-17.35,-20.09,0,*76
1506463564.04,61763,15.31,74750.0,1.05,-17.45,-20.25,0,*7E
1506463565.3,61764,15.25,74746.5,1.05,-17.45,-20.19,0,*76
1506463566.54,61765,15.25,74750.3,1.05,-17.45,-20.25,0,*78
1506463567.77,61766,15.25,74744.5,1.03,-17.49,-20.25,0,*71
1506463569.03,61767,15.31,74752.3,1.03,-17.41,-20.25,0,*78
1506463570.26,61768,15.31,74748.3,1.03,-17.49,-20.29,0,*73
1506463571.54,61769,15.31,74744.5,1.03,-17.25,-20.15,0,*77
1506463572.82,61770,15.25,74744.0,1.03,-17.25,-19.85,0,*7C
1506463574.05,61771,15.31,74746.8,1.05,-17.17,-20.05,0,*78
1506463575.31,61772,15.25,74744.8,1.03,-17.25,-20.09,0,*70
1506463576.58,61773,15.31,74748.3,1.03,-17.25,-20.15,0,*7C
1506463577.82,61774,15.25,74746.3,1.03,-17.35,-20.25,0,*79
1506463579.05,61775,15.31,74750.8,1.03,-17.49,-20.29,0,*7F
1506463580.28,61776,15.31,74750.0,1.03,-17.49,-20.29,0,*7C
1506463581.52,61777,15.31,74748.8,1.05,-17.35,-20.19,0,*73
1506463582.77,61778,15.25,74744.0,1.03,-17.35,-20.15,0,*76
1506463584.0,61779,15.31,74748.0,1.03,-17.49,-20.25,0,*7F
1506463585.23,61780,15.31,74748.5,1.03,-17.49,-20.29,0,*75
1506463586.46,61781,15.31,74750.5,1.03,-17.49,-20.29,0,*74
1506463587.72,61782,15.31,74748.3,1.03,-17.41,-20.29,0,*7F
1506463588.96,61783,15.25,74748.3,1.01,-17.25,-20.25,0,*72
1506463590.19,61784,15.25,74744.0,1.03,-17.35,-20.25,0,*76
1506463591.43,61785,15.31,74750.3,1.05,-17.21,-20.09,0,*7A
1506463592.7,61786,15.31,74748.3,1.03,-17.25,-20.15,0,*76
1506463593.93,61787,15.31,74746.0,1.05,-17.31,-20.19,0,*78
1506463595.19,61788,15.25,74746.0,1.03,-17.25,-20.25,0,*7B
1506463596.46,61789,15.31,74748.5,1.03,-17.25,-20.15,0,*79
1506463597.74,61790,15.25,74748.8,1.03,-17.25,-20.15,0,*71
1506463598.97,61791,15.31,74750.3,1.03,-17.35,-20.09,0,*7C
1506463600.23,61792,15.25,74746.5,1.03,-17.21,-19.99,0,*79
1506463601.46,61793,15.31,74744.8,1.05,-17.21,-20.09,0,*7D
1506463602.69,61794,15.31,74746.8,1.05,-17.21,-20.09,0,*7A
1506463603.93,61795,15.31,74746.0,1.05,-17.21,-20.09,0,*7B
1506463605.15,61796,15.25,74746.3,1.05,-17.31,-20.19,0,*78
1506463606.41,61797,15.31,74746.0,1.03,-17.25,-20.25,0,*75
1506463607.65,61798,15.25,74744.0,1.05,-17.21,-20.09,0,*76
1506463608.9,61799,15.31,74748.5,1.03,-17.25,-20.09,0,*75
1506463610.18,61800,15.25,74748.3,1.03,-17.21,-20.15,0,*73
1506463611.41,61801,15.25,74744.3,1.05,-17.21,-20.09,0,*79
1506463612.69,61802,15.25,74750.5,1.03,-17.21,-20.15,0,*71
1506463613.94,61803,15.25,74746.8,1.03,-17.21,-20.09,0,*7D
1506463615.2,61804,15.31,74750.3,1.05,-17.03,-19.81,0,*76
1506463616.43,61805,15.31,74750.0,1.05,-17.17,-20.09,0,*78
1506463617.71,61806,15.25,74748.5,1.03,-17.07,-19.85,0,*72
1506463618.91,61807,15.25,74750.5,1.05,-16.93,-19.75,0,*76
1506463620.12,61808,15.25,74750.3,1.05,-16.89,-19.75,0,*72
1506463621.37,61809,15.25,74750.5,1.05,-17.03,-19.81,0,*7B
1506463622.62,61810,15.25,74748.8,1.05,-17.03,-19.81,0,*73
1506463623.85,61811,15.25,74750.0,1.05,-17.03,-20.05,0,*74
1506463625.09,61812,15.25,74750.5,1.05,-17.17,-19.95,0,*71
1506463626.33,61813,15.25,74750.0,1.05,-17.17,-20.05,0,*73
1506463627.56,61814,15.25,74748.0,1.05,-17.17,-20.05,0,*74
1506463628.8,61815,15.31,74748.3,1.05,-17.07,-20.09,0,*78
1506463630.03,61816,15.31,74750.5,1.05,-17.17,-20.09,0,*7A
1506463631.27,61817,15.31,74748.8,1.05,-17.07,-20.05,0,*76
1506463632.52,61818,15.25,74750.5,1.03,-17.21,-20.09,0,*77
1506463633.77,61819,15.31,74750.3,1.03,-17.11,-20.09,0,*75
1506463635.05,61820,15.25,74748.5,1.03,-17.07,-20.15,0,*75
1506463636.3,61821,15.31,74748.5,1.03,-17.07,-19.99,0,*7A
1506463637.56,61822,15.25,74744.8,1.03,-17.07,-19.99,0,*79
1506463638.79,61823,15.25,74746.8,1.05,-17.03,-19.95,0,*76
1506463640.04,61824,15.25,74744.3,1.03,-17.11,-19.99,0,*78
1506463641.3,61825,15.31,74748.3,1.03,-17.07,-20.09,0,*7D
1506463642.57,61826,15.31,74744.8,1.03,-17.11,-20.15,0,*74
1506463643.8,61827,15.25,74746.8,1.05,-17.07,-20.05,0,*75
1506463645.01,61828,15.25,74748.0,1.01,-16.97,-20.09,0,*7A
1506463646.24,61829,15.25,74746.8,1.05,-17.03,-20.09,0,*73
1506463647.47,61830,15.25,74746.8,1.05,-17.03,-20.09,0,*7B
1506463648.7,61831,15.25,74746.5,1.03,-16.93,-20.09,0,*74
1506463649.93,61832,15.31,74748.5,1.03,-16.97,-20.09,0,*73
1506463651.16,61833,15.25,74744.0,1.05,-17.03,-20.05,0,*74
1506463652.36,61834,15.31,74748.3,1.05,-16.93,-20.09,0,*77
1506463653.59,61835,15.25,74744.0,1.03,-16.97,-20.09,0,*74
1506463654.82,61836,15.31,74748.3,1.05,-16.93,-19.81,0,*7F
1506463656.07,61837,15.25,74744.3,1.03,-17.07,-20.09,0,*7E
1506463657.3,61838,15.25,74746.5,1.03,-16.97,-20.09,0,*79
1506463658.53,61839,15.25,74746.5,1.03,-16.93,-19.99,0,*7F
1506463659.78,61840,15.25,74746.0,1.03,-16.65,-19.75,0,*7A
1506463661.04,61841,15.25,74744.5,1.03,-16.79,-19.85,0,*79
1506463662.28,61842,15.25,74744.3,1.03,-16.93,-19.85,0,*7E
1506463663.49,61843,15.31,74744.8,1.05,-16.89,-19.95,0,*73
1506463664.7,61844,15.31,74744.0,1.05,-16.83,-19.95,0,*7E
1506463665.93,61845,15.31,74746.8,1.05,-16.89,-19.81,0,*70
1506463667.19,61846,15.31,74750.0,1.07,-16.89,-19.81,0,*71
1506463668.41,61847,15.25,74746.8,1.05,-16.89,-19.81,0,*72
1506463669.62,61848,15.25,74744.3,1.01,-16.89,-20.09,0,*73
1506463670.83,61849,15.25,74744.8,1.05,-16.89,-19.95,0,*79
1506463672.04,61850,15.31,74746.5,1.05,-16.75,-19.95,0,*72
1506463673.27,61851,15.25,74746.5,1.05,-16.75,-19.81,0,*76
1506463674.52,61852,15.25,74748.0,1.03,-16.89,-19.85,0,*74
1506463675.73,61853,15.31,74750.5,1.05,-16.75,-19.95,0,*71
1506463676.96,61854,15.25,74746.8,1.03,-16.93,-20.09,0,*77
1506463678.18,61855,15.31,74750.5,1.03,-16.89,-20.09,0,*7D
1506463679.41,61856,15.31,74750.8,1.03,-16.89,-20.09,0,*7E
1506463680.65,61857,15.25,74746.0,1.03,-16.75,-20.09,0,*7C
1506463681.88,61858,15.31,74744.3,1.03,-16.79,-19.99,0,*7C
1506463683.1,61859,15.25,74746.3,1.03,-16.79,-19.99,0,*7D
1506463684.34,61860,15.25,74746.3,1.05,-16.69,-19.95,0,*7C
1506463685.55,61861,15.25,74744.3,1.05,-16.59,-19.71,0,*74
1506463686.77,61862,15.31,74744.3,1.05,-16.59,-19.81,0,*78
1506463688.03,61863,15.31,74748.0,1.03,-16.75,-19.85,0,*75
1506463689.28,61864,15.25,74746.0,1.03,-16.75,-19.85,0,*72
1506463690.54,61865,15.31,74748.0,1.05,-16.69,-19.81,0,*7C
1506463691.82,61866,15.25,74746.8,1.03,-16.51,-19.65,0,*78
1506463693.02,61867,15.31,74750.5,1.01,-16.59,-19.75,0,*72
1506463694.3,61868,15.31,74750.8,1.03,-16.65,-19.81,0,*7B
1506463695.51,61869,15.31,74750.3,1.05,-16.59,-19.75,0,*78
1506463696.76,61870,15.31,74746.8,1.03,-16.65,-19.99,0,*7B
1506463698.04,61871,15.31,74748.5,1.03,-16.65,-19.85,0,*77
1506463699.3,61872,15.25,74746.5,1.03,-16.59,-19.85,0,*7B
1506463700.5,61873,15.31,74748.0,1.05,-16.55,-19.71,0,*7B
1506463701.71,61874,15.25,74746.5,1.05,-16.55,-19.71,0,*7C
1506463702.97,61875,15.25,74746.8,1.03,-16.45,-19.65,0,*7F
1506463704.24,61876,15.25,74744.3,1.03,-16.51,-19.65,0,*79
1506463705.47,61877,15.25,74744.5,1.03,-16.45,-19.75,0,*7C